Lid_Strength_Index
1 0 -0 -1 -1 -1 -1 -1 -0 -0 -0 -0 -0 -0 -0 0 1 0 -0 -0 -0 -0 -0 -0 0 0 4 8 9 6 0 1 5 6 8 8 10 11 12 11 11 12 11 10 11 11 12
1 0 -0 -1 -1 -1 -1 -1 -0 -0 -0 -0 -0 -0 0 0 0 0 0 0 0 0 -0 0 0 1 6 11 8 6 7 7 7 8 8 8 9 10 12 11 12 11 11 11 11 11 11
1 1 0 -0 -0 -1 -1 -1 -0 -0 -0 -0 -0 -0 0 0 0 1 1 1 0 0 0 1 1 3 7 9 8 7 7 8 8 7 8 8 8 10 11 12 10 11 12 12 12 11 11
1 1 1 -1 0 -0 -0 -1 -0 -0 -0 -0 0 0 0 1 1 0 1 1 1 1 1 1 1 5 10 7 7 6 7 8 7 7 7 7 7 9 10 11 10 12 12 14 12 10 11
1 0 1 0 0 0 -1 0 -0 0 0 0 0 0 1 1 1 1 1 1 1 1 1 1 6 7 10 5 8 7 7 8 8 7 7 6 7 9 10 12 14 13 16 15 13 10 11
1 1 1 1 0 1 1 1 0 1 1 0 1 1 1 1 1 1 1 2 1 2 3 4 7 10 9 9 8 7 7 7 8 7 7 8 10 12 13 14 18 16 15 15 15 12 12
2 1 1 1 1 1 1 1 1 1 1 1 1 1 1 1 1 1 4 6 7 8 9 10 10 10 9 7 7 7 7 8 8 9 12 10 13 15 14 13 14 14 15 16 15 13 14
2 2 1 1 1 1 2 1 1 2 2 2 1 1 1 2 1 2 6 8 8 8 11 9 9 9 8 7 9 8 7 10 10 13 11 12 14 13 12 12 13 14 16 16 14 13 14
1 1 1 1 2 2 2 2 2 2 2 2 2 1 1 2 2 5 7 8 6 7 11 9 9 9 9 8 10 9 8 9 11 12 13 14 14 12 12 14 14 15 16 16 16 14 15
1 1 1 1 2 2 2 2 2 2 2 2 2 1 1 2 5 7 8 7 6 6 13 11 10 9 8 8 10 8 8 9 11 12 13 14 13 13 15 14 14 17 14 14 15 18 20
2 2 2 2 2 3 3 2 2 3 3 2 2 2 2 3 7 9 7 6 6 8 19 10 10 7 8 10 9 9 8 10 12 12 13 15 15 15 15 15 14 16 13 14 15 18 20
2 2 2 2 2 2 3 3 3 3 3 2 2 1 2 5 7 7 6 5 6 14 19 12 10 11 11 10 10 9 9 9 10 12 13 15 13 13 14 13 13 13 14 15 17 19 25
2 3 3 2 2 3 3 3 3 3 3 3 3 2 4 6 7 6 5 8 14 18 13 14 13 12 12 12 12 11 12 14 15 16 17 15 15 14 13 15 13 14 18 23 23 24 22
2 2 2 3 2 3 3 3 3 3 4 3 3 2 4 6 5 5 6 11 17 14 14 12 12 13 14 13 14 13 14 15 14 15 18 17 18 15 14 15 16 16 18 22 25 22 19
2 2 2 2 3 3 3 3 4 4 4 3 3 5 5 6 6 5 9 16 16 15 13 13 13 16 16 14 14 15 16 16 15 14 17 18 17 15 14 14 15 16 18 16 22 23 23
2 3 3 3 3 3 3 4 4 4 4 2 5 6 6 6 6 7 11 13 14 13 13 13 16 16 17 15 16 16 16 15 15 13 14 16 19 16 15 14 14 16 15 19 21 26 25
3 3 4 4 4 4 4 4 4 4 3 2 7 8 6 6 7 10 15 14 14 13 12 14 15 16 16 16 16 17 17 15 14 14 13 17 19 18 17 17 18 17 20 18 18 20 24
4 4 4 4 4 4 5 5 4 4 3 5 8 12 6 6 12 14 15 14 11 13 12 13 14 15 16 17 18 17 16 15 14 14 15 16 18 20 18 19 18 18 18 18 20 23 24
4 4 4 4 5 5 5 5 4 4 3 7 10 10 6 7 14 15 14 13 12 13 14 14 15 15 15 16 18 16 16 14 14 14 16 17 19 23 20 19 19 21 19 18 21 21 24
4 4 4 5 4 5 5 5 5 4 4 6 9 12 10 10 11 14 14 14 14 11 13 13 15 14 16 17 16 17 16 14 13 13 10 13 17 20 21 20 19 22 17 18 21 25 23
4 4 4 4 4 5 5 5 5 4 4 7 10 12 11 14 13 13 13 14 14 14 13 13 14 14 15 17 16 16 15 14 13 11 14 15 21 18 17 16 17 20 22 19 22 22 20
4 4 4 4 5 5 5 5 5 5 3 8 11 11 11 13 12 13 13 15 15 15 14 15 15 15 15 16 16 16 15 16 16 14 15 15 21 22 23 17 22 24 19 21 22 25 22
4 4 4 5 5 5 5 5 5 6 5 10 10 9 12 14 15 17 16 15 15 15 14 14 14 17 17 15 15 16 16 16 16 15 16 19 20 25 25 19 21 26 25 25 23 27 21
4 4 4 5 5 6 6 6 5 5 9 11 13 11 14 17 17 17 15 16 16 16 14 14 15 17 15 14 15 15 16 15 16 17 15 19 21 23 26 23 30 21 23 23 22 25 27
4 4 5 5 5 6 6 6 6 6 8 13 13 12 14 18 17 16 15 16 16 16 15 15 14 14 14 15 17 19 19 18 17 16 17 15 18 24 26 26 21 18 17 20 21 21 21
5 5 5 5 6 6 6 6 6 7 7 13 13 13 13 15 16 15 15 16 17 18 17 15 14 13 14 15 17 24 23 20 20 19 15 16 17 22 25 25 27 20 16 15 18 23 17
5 5 5 6 6 6 6 7 6 6 6 10 12 11 11 14 14 14 16 16 14 16 17 17 16 15 15 17 19 20 21 19 22 21 20 18 22 21 21 27 21 16 15 15 22 21 15
5 5 5 5 6 6 6 6 6 7 6 10 12 11 11 14 13 12 12 15 15 15 17 17 17 18 19 20 19 21 24 22 22 20 21 22 22 22 20 21 24 15 15 17 16 14 13
5 5 5 5 5 5 5 5 5 5 5 7 12 9 9 13 14 12 13 13 13 13 15 17 17 18 16 19 21 21 20 25 25 25 20 22 19 20 18 19 16 15 15 14 13 14 13